This is the latest recevied weather packets stored in our database for station/object N9WHM. If no packets are shown the sender has not sent any weather packets the latest 10 day(s).
| Time | Temp. | Humidity | Pressure | Rain* | Wind** | Luminosity | Snow |
|---|---|---|---|---|---|---|---|
| 1778246894 | 15° C | 39% | 1009.5 hPa | 0 mm | - | 185 W/m² | - |
| 1778246592 | 13.33° C | 42% | 1009.4 hPa | 0 mm | - | 173 W/m² | - |
| 1778246288 | 13.89° C | 43% | 1009.3 hPa | 0 mm | - | 165 W/m² | - |
| 1778245984 | 13.33° C | 43% | 1009.3 hPa | 0 mm | - | 160 W/m² | - |
| 1778245680 | 12.22° C | 45% | 1009.3 hPa | 0 mm | - | 141 W/m² | - |
| 1778245378 | 12.78° C | 45% | 1009.4 hPa | 0 mm | - | 133 W/m² | - |
| 1778245074 | 11.67° C | 49% | 1009.3 hPa | 0 mm | - | 120 W/m² | - |
| 1778244770 | 11.11° C | 48% | 1009.2 hPa | 0 mm | - | 112 W/m² | - |
| 1778244468 | 11.11° C | 47% | 1009.2 hPa | 0 mm | - | 101 W/m² | - |
| 1778244165 | 11.11° C | 48% | 1009.3 hPa | 0 mm | - | 93 W/m² | - |
| 1778243863 | 11.11° C | 49% | 1009.3 hPa | 0 mm | - | 85 W/m² | - |
| 1778243561 | 10.56° C | 49% | 1009.5 hPa | 0 mm | - | 77 W/m² | - |
| 1778243257 | 10° C | 52% | 1009.5 hPa | 0 mm | - | 73 W/m² | - |
| 1778242954 | 10° C | 53% | 1009.1 hPa | 0 mm | - | 66 W/m² | - |
| 1778242651 | 9.44° C | 52% | 1009.5 hPa | 0 mm | - | 59 W/m² | - |
| 1778242350 | 8.89° C | 55% | 1009.4 hPa | 0 mm | - | 50 W/m² | - |
| 1778242046 | 8.89° C | 57% | 1009.7 hPa | 0 mm | - | 32 W/m² | - |
| 1778241745 | 8.33° C | 58% | 1009.6 hPa | 0 mm | - | 30 W/m² | - |
| 1778241442 | 7.78° C | 60% | 1009.3 hPa | 0 mm | - | 31 W/m² | - |
| 1778241140 | 7.78° C | 60% | 1009.5 hPa | 0 mm | - | 23 W/m² | - |
| 1778240836 | 7.78° C | 61% | 1009.3 hPa | 0 mm | - | 20 W/m² | - |
| 1778240533 | 7.78° C | 60% | 1009.1 hPa | 0 mm | - | 17 W/m² | - |
| 1778240229 | 7.78° C | 61% | 1009.1 hPa | 0 mm | - | 14 W/m² | - |
| 1778239928 | 7.78° C | 59% | 1009 hPa | 0 mm | - | 11 W/m² | - |
| 1778239623 | 7.78° C | 60% | 1008.9 hPa | 0 mm | - | 8 W/m² | - |
* Rain latest hour (hover to see other rain measurements)
** Current wind speed in m/s (hover to see current wind gust speed)